This demonstration page uses our WeatherBlox Daily Observations layout. Learn more.

Left ArrowRight Arrow

Hourly Observations for June 2, 2021

Temp ( °F °C ) Dew Point ( °F °C ) Humidity (%) Winds ( mph kmh ) Pressure ( in mb ) Visibility ( mi km ) Precip ( " mm )
12:15 am 00:15 Clear 57 14 47 8.5 70 70 SSE 3 6 30.06 1018 10 16 N/A
12:35 am 00:35 Clear 56 13.6 48 9.1 74 74 SSE 5 7 30.06 1018 10 16 N/A
12:55 am 00:55 Clear 56 13.4 49 9.3 76 76 S 3 6 30.06 1018 10 16 N/A
1:15 am 01:15 Clear 56 13.1 49 9.7 80 80 N N/A 30.06 1018 10 16 N/A
1:35 am 01:35 Clear 55 13 50 10 82 82 S 3 6 30.06 1018 10 16 N/A
1:55 am 01:55 Clear 54 12.4 50 9.8 84 84 N N/A 30.05 1018 10 16 N/A
2:15 am 02:15 Clear 55 12.5 51 10.5 88 88 N N/A 30.05 1018 10 16 N/A
2:35 am 02:35 Clear 53 11.8 50 10 89 89 N N/A 30.05 1018 10 16 N/A
2:55 am 02:55 Clear 55 12.5 51 10.5 88 88 N N/A 30.04 1017 10 16 N/A
3:15 am 03:15 Clear 55 12.5 52 11 91 91 N N/A 30.03 1017 10 16 N/A
3:35 am 03:35 Clear 53 11.9 52 11 94 94 N N/A 30.04 1017 10 16 N/A
3:55 am 03:55 Clear 55 12.7 53 11.9 95 95 SSW 3 6 30.03 1017 10 16 N/A
4:15 am 04:15 Clear 54 12 52 11.2 95 95 N N/A 30.04 1017 10 16 N/A
4:35 am 04:35 Clear 53 11.6 52 11 96 96 N N/A 30.04 1017 7 11 N/A
4:55 am 04:55 Clear with Mist and Fog 51 10.6 50 10 96 96 N N/A 30.05 1018 2 3 N/A
5:15 am 05:15 Clear 52 11 51 10.5 97 97 N N/A 30.03 1017 10 16 N/A
5:35 am 05:35 Clear 51 10.4 49 9.6 95 95 N N/A 30.04 1017 10 16 N/A
5:55 am 05:55 Clear with Mist and Fog 50 10.1 49 9.5 96 96 N N/A 30.04 1017 2 3 N/A
6:15 am 06:15 undefined 51 10.4 50 9.9 97 97 N N/A 30.04 1017 7 11 N/A
6:35 am 06:35 Partly Cloudy with Mist and Fog 50 9.9 49 9.4 97 97 N N/A 30.05 1018 1 1 N/A
6:55 am 06:55 Partly Cloudy with Mist and Fog 50 9.8 49 9.3 97 97 N N/A 30.05 1018 2 2 N/A
7:15 am 07:15 undefined 52 11.3 52 10.9 97 97 N N/A 30.04 1017 7 11 N/A
7:35 am 07:35 Sunny 55 12.8 54 12.4 97 97 N N/A 30.03 1017 10 16 N/A
7:55 am 07:55 Sunny 58 14.2 57 13.7 97 97 N N/A 30.02 1016 10 16 N/A
8:15 am 08:15 Sunny 60 15.5 58 14.6 94 94 N N/A 30.00 1016 10 16 N/A
8:35 am 08:35 Sunny 62 16.9 59 14.8 88 88 N N/A 29.99 1016 10 16 N/A
8:55 am 08:55 Sunny 64 17.7 58 14.6 82 82 N N/A 29.99 1015 10 16 N/A
9:15 am 09:15 Sunny 65 18.5 57 14 75 75 N N/A 29.98 1015 10 16 N/A
9:35 am 09:35 Sunny 66 19 56 13.3 70 70 SE 3 6 29.98 1015 10 16 N/A
9:55 am 09:55 Sunny 67 19.3 53 11.6 61 61 N N/A 29.97 1015 10 16 N/A
10:15 am 10:15 Sunny 67 19.5 53 11.5 60 60 N N/A 29.97 1015 10 16 N/A
10:35 am 10:35 Sunny 68 20.2 51 10.4 53 53 N N/A 29.97 1015 10 16 N/A
10:55 am 10:55 Sunny 69 20.3 50 10.1 52 52 N N/A 29.96 1015 10 16 N/A
11:15 am 11:15 Sunny 69 20.7 48 9.1 48 48 N N/A 29.95 1014 10 16 N/A
11:35 am 11:35 Sunny 70 21.2 48 8.9 45 45 N N/A 29.95 1014 10 16 N/A
11:55 am 11:55 Sunny 71 21.7 50 10.1 48 48 E 9 15 29.94 1014 10 16 N/A
12:15 pm 12:15 Sunny 71 21.7 48 8.8 44 44 N N/A 29.94 1014 10 16 N/A
12:35 pm 12:35 Sunny 72 22.2 50 9.9 46 46 E 8 13 29.94 1014 10 16 N/A
12:55 pm 12:55 Sunny 73 22.6 45 7.2 37 37 E 5 7 29.94 1014 10 16 N/A
1:15 pm 13:15 Sunny 73 22.7 44 6.8 36 36 E 7 11 29.93 1014 10 16 N/A
1:35 pm 13:35 Sunny N/A N/A N/A undefined N/A N/A N/A N/A
1:55 pm 13:55 undefined 75 23.7 42 5.8 32 32 NE 5 7 29.91 1013 N/A N/A
2:15 pm 14:15 Sunny 73 22.9 41 5 31 31 SE 5 7 29.91 1013 10 16 N/A
2:35 pm 14:35 Partly Cloudy 74 23.5 44 6.6 34 34 ESE 10 17 29.91 1013 10 16 N/A
2:55 pm 14:55 Sunny 74 23.6 44 6.8 34 34 N N/A 29.90 1012 10 16 N/A
3:15 pm 15:15 Sunny 75 23.8 45 7.3 35 35 E 6 9 29.90 1012 10 16 N/A
3:35 pm 15:35 Sunny 75 23.9 45 7.1 34 34 SSW 6 9 29.89 1012 10 16 N/A
3:55 pm 15:55 Partly Cloudy 75 23.9 43 6.2 32 32 N N/A 29.89 1012 10 16 N/A
4:15 pm 16:15 Partly Cloudy 75 24.1 43 6.1 31 31 N N/A 29.88 1012 10 16 N/A
4:35 pm 16:35 Partly Cloudy 75 24 42 5.5 30 30 ENE 3 6 29.88 1012 10 16 N/A
4:55 pm 16:55 Sunny 75 24.1 42 5.5 30 30 N 3 6 29.87 1012 10 16 N/A
5:15 pm 17:15 Sunny 76 24.4 42 5.3 29 29 N N/A 29.86 1011 10 16 N/A
5:35 pm 17:35 Sunny 76 24.4 43 6 31 31 SE 7 11 29.86 1011 10 16 N/A
5:55 pm 17:55 Sunny 76 24.6 43 6.1 31 31 SE 5 7 29.85 1011 10 16 N/A
6:15 pm 18:15 Sunny 76 24.3 42 5.4 30 30 SE 5 7 29.85 1011 10 16 N/A
6:35 pm 18:35 Sunny 75 24.1 43 6.3 32 32 E 5 7 29.85 1011 10 16 N/A
6:55 pm 18:55 Sunny 76 24.2 41 5 29 29 N N/A 29.85 1011 10 16 N/A
7:15 pm 19:15 Sunny 76 24.2 42 5.3 30 30 N N/A 29.85 1011 10 16 N/A
7:35 pm 19:35 Sunny 75 24.1 42 5.7 31 31 SE 6 9 29.85 1011 10 16 N/A
7:55 pm 19:55 Sunny 75 23.7 42 5.5 31 31 N N/A 29.86 1011 10 16 N/A
8:15 pm 20:15 Sunny 73 23 44 6.7 35 35 SSE 7 11 29.86 1011 10 16 N/A
8:35 pm 20:35 Sunny 71 21.7 46 7.7 41 41 SSE 5 7 29.88 1012 10 16 N/A
8:55 pm 20:55 Sunny 69 20.7 46 8 44 44 S 5 7 29.89 1012 10 16 N/A
9:15 pm 21:15 Clear 68 20.1 47 8.5 47 47 S 6 9 29.90 1012 10 16 N/A
9:35 pm 21:35 Clear 64 18 49 9.6 58 58 SSE 3 6 29.92 1013 10 16 N/A
9:55 pm 21:55 Clear 64 17.6 49 9.7 60 60 SSE 3 6 29.94 1014 10 16 N/A
10:15 pm 22:15 Clear 63 17.4 49 9.5 60 60 SSE 5 7 29.94 1014 10 16 N/A
10:35 pm 22:35 Clear 63 17.2 49 9.2 60 60 SSE 5 7 29.94 1014 10 16 N/A
10:55 pm 22:55 Clear 63 17 48 9.1 60 60 SSE 5 7 29.94 1014 10 16 N/A
11:15 pm 23:15 Clear 61 16.3 48 9 62 62 SSE 5 7 29.96 1014 10 16 N/A
11:35 pm 23:35 Clear 61 16.1 48 9 63 63 SSE 5 7 29.96 1015 10 16 N/A
11:55 pm 23:55 Clear 61 15.9 48 8.8 63 63 S 6 9 29.96 1015 10 16 N/A

Powered by AerisWeather